GW1347 Weather Reports


time (UTC)temp
C
wind
direction
speed
KPH
gust
KPH
rain 1hr
cm
rain 24hr
cm
rain mn
cm
humidity
%
barometer
mb
20260906080548 23 6 6.4 14.5 0.00 0.00 0.00 89 1014.1
20260906075529 23 13 4.8 12.9 0.00 0.00 0.00 89 1014.1
20260906074546 23 341 4.8 12.9 0.00 0.00 0.00 89 1014.1
20260906073557 23 9 4.8 12.9 0.00 0.00 0.00 89 1014.1
20260906072559 23 356 4.8 12.9 0.00 0.00 0.00 89 1014.1
20260906071609 23 1 3.2 8.0 0.00 0.00 0.00 90 1014.1
20260906070621 23 27 3.2 9.7 0.00 0.00 0.00 89 1014.1
20260906065635 23 16 4.8 9.7 0.00 0.00 0.00 89 1014.0
20260906064648 23 346 3.2 9.7 0.00 0.00 0.00 89 1014.1
20260906063659 23 339 3.2 9.7 0.00 0.00 0.00 88 1014.0
20260906062649 23 7 1.6 6.4 0.00 0.00 0.00 90 1014.2
20260906061702 23 335 0.0 8.0 0.00 0.00 0.00 89 1014.2
20260906060640 23 359 1.6 8.0 0.00 0.00 0.00 87 1014.3
20260906055634 23 351 1.6 9.7 0.00 0.00 0.00 88 1014.3
20260906054611 24 357 3.2 9.7 0.00 0.00 0.00 86 1014.2
20260906053547 23 17 3.2 12.9 0.00 0.00 0.00 87 1014.1
20260906052612 24 354 4.8 12.9 0.00 0.00 0.00 85 1014.1
20260906050432 24 339 0.0 6.4 0.00 0.00 0.00 84 1014.0
20260906045417 25 5 1.6 8.0 0.00 0.00 0.00 82 1013.9
20260906044402 25 24 3.2 8.0 0.00 0.00 0.00 82 1013.8
20260906043350 25 18 1.6 8.0 0.00 0.00 0.00 80 1013.7
20260906041140 25 18 3.2 9.7 0.00 0.00 0.00 80 1013.4
20260906040151 25 359 4.8 9.7 0.00 0.00 0.00 79 1013.3
20260906035131 25 356 4.8 8.0 0.00 0.00 0.00 78 1013.3
20260906034142 26 30 4.8 9.7 0.00 0.00 0.00 77 1013.3
20260906033131 26 37 6.4 11.3 0.00 0.00 0.00 76 1013.4
20260906032113 26 35 4.8 11.3 0.00 0.00 0.00 75 1013.3
20260906031106 26 26 4.8 12.9 0.00 0.00 0.00 74 1013.4
20260906030051 26 23 4.8 12.9 0.00 0.00 0.00 72 1013.4
20260906025017 26 51 6.4 12.9 0.00 0.00 0.00 72 1013.2
20260906024022 27 16 6.4 12.9 0.00 0.00 0.00 72 1013.2
20260906023007 27 359 6.4 14.5 0.00 0.00 0.00 72 1013.2
20260906021950 27 82 6.4 14.5 0.00 0.00 0.00 72 1013.2
20260906020923 28 147 3.2 16.1 0.00 0.00 0.00 71 1013.1
20260906013616 28 8 6.4 14.5 0.00 0.00 0.00 70 1012.5
20260906012630 29 43 8.0 20.9 0.00 0.00 0.00 71 1012.5
20260906011621 29 8 8.0 20.9 0.00 0.00 0.00 69 1012.3
20260906010606 30 26 1.6 9.7 0.00 0.00 0.00 73 1012.1
20260906005617 30 316 0.0 0.0 0.00 0.00 0.00 73 1011.9
20260906004549 30 316 0.0 0.0 0.00 0.00 0.00 72 1011.6
20260906003534 31 317 0.0 1.6 0.00 0.00 0.00 71 1011.4
20260906002532 31 279 0.0 3.2 0.00 0.00 0.00 69 1011.4
20260906001556 31 13 0.0 3.2 0.00 0.00 0.00 68 1011.5
20260906000607 31 309 0.0 3.2 0.00 0.00 0.00 69 1011.5
20260905235613 32 328 0.0 1.6 0.00 0.00 0.00 68 1011.5
20260905234557 33 318 0.0 1.6 0.00 0.00 0.00 64 1011.6
20260905233553 33 297 0.0 1.6 0.00 0.00 0.00 63 1011.6
20260905232519 34 347 0.0 1.6 0.00 0.00 0.00 62 1011.6
20260905230358 33 359 0.0 1.6 0.00 0.00 0.00 61 1012.0
20260905225351 33 325 0.0 1.6 0.00 0.00 0.00 61 1011.6
20260905224354 33 323 0.0 1.6 0.00 0.00 0.00 58 1011.5
20260905223351 33 1 0.0 1.6 0.00 0.00 0.00 58 1011.3
20260905222337 33 322 0.0 1.6 0.00 0.00 0.00 57 1011.2
20260905221345 33 345 0.0 1.6 0.00 0.00 0.00 57 1011.1
20260905220322 34 305 0.0 3.2 0.00 0.00 0.00 56 1011.4
20260905214151 34 302 0.0 12.9 0.00 0.00 0.00 56 1011.5
20260905213214 35 330 3.2 12.9 0.00 0.00 0.00 54 1011.5
20260905212218 35 302 1.6 6.4 0.00 0.00 0.00 52 1011.5
20260905211147 36 37 1.6 1.6 0.00 0.00 0.00 50 1011.4
20260905210129 36 294 0.0 6.4 0.00 0.00 0.00 50 1011.7
20260905205102 36 326 1.6 6.4 0.00 0.00 0.00 50 1011.8
20260905202936 36 254 1.6 4.8 0.00 0.00 0.00 51 1012.0
20260905201921 36 295 3.2 6.4 0.00 0.00 0.00 50 1012.2
20260905200922 36 290 1.6 14.5 0.00 0.00 0.00 48 1012.3
20260905195927 35 358 4.8 14.5 0.00 0.00 0.00 49 1012.4
20260905194930 36 239 1.6 6.4 0.00 0.00 0.00 47 1012.5
20260905192810 35 271 3.2 9.7 0.00 0.00 0.00 49 1012.6
20260905191833 35 241 1.6 9.7 0.00 0.00 0.00 49 1012.7
20260905190824 35 232 4.8 14.5 0.00 0.00 0.00 48 1012.8
20260905185756 34 272 4.8 14.5 0.00 0.00 0.00 50 1013.0
20260905184818 33 257 6.4 14.5 0.00 0.00 0.00 50 1013.1
20260905183819 33 264 4.8 11.3 0.00 0.00 0.00 50 1013.3
20260905182824 33 283 4.8 11.3 0.00 0.00 0.00 50 1013.4
20260905181827 33 240 4.8 14.5 0.00 0.00 0.00 48 1013.5
20260905180816 33 225 6.4 14.5 0.00 0.00 0.00 49 1013.5
20260905175836 33 146 6.4 12.9 0.00 0.00 0.00 47 1013.5
20260905174810 33 264 4.8 14.5 0.00 0.00 0.00 48 1013.8
20260905173821 33 148 3.2 14.5 0.00 0.00 0.00 48 1013.9
20260905172836 33 143 4.8 11.3 0.00 0.00 0.00 49 1013.9
20260905171840 32 217 4.8 12.9 0.00 0.00 0.00 50 1014.2
20260905170847 32 191 6.4 14.5 0.00 0.00 0.00 50 1014.3
20260905165852 31 241 6.4 19.3 0.00 0.00 0.00 53 1014.5
20260905164851 31 250 6.4 19.3 0.00 0.00 0.00 54 1014.7
20260905161603 30 150 6.4 20.9 0.00 0.00 0.00 54 1014.6
20260905160542 30 141 8.0 20.9 0.00 0.00 0.00 56 1014.7
20260905155517 28 241 8.0 16.1 0.00 0.00 0.00 57 1014.9
20260905154455 28 333 4.8 14.5 0.00 0.00 0.00 57 1015.0
20260905153514 28 206 6.4 14.5 0.00 0.00 0.00 57 1014.8
20260905152523 29 226 6.4 14.5 0.00 0.00 0.00 55 1014.9
20260905151520 30 142 4.8 16.1 0.00 0.00 0.00 53 1015.0
20260905150532 28 219 6.4 16.1 0.00 0.00 0.00 55 1015.1
20260905144347 28 212 8.0 17.7 0.00 0.00 0.00 57 1015.0
20260905143326 28 127 8.0 19.3 0.00 0.00 0.00 58 1015.1
20260905142346 27 237 8.0 19.3 0.00 0.00 0.00 59 1015.5
20260905140216 27 220 6.4 14.5 0.00 0.00 0.00 62 1015.6
20260905135155 27 107 6.4 20.9 0.00 0.00 0.00 62 1015.6
20260905131908 26 103 6.4 17.7 0.00 0.00 0.00 67 1015.8
20260905130930 25 125 8.0 16.1 0.00 0.00 0.00 68 1015.9
20260905125908 25 308 9.7 24.1 0.00 0.00 0.00 68 1016.1
20260905124904 25 135 9.7 24.1 0.00 0.00 0.00 70 1015.7
20260905123920 25 127 6.4 14.5 0.00 0.00 0.00 71 1016.0
20260905122851 25 117 6.4 16.1 0.00 0.00 0.00 73 1015.8
20260905121848 24 77 6.4 17.7 0.00 0.00 0.00 75 1015.9
20260905120852 24 111 8.0 19.3 0.00 0.00 0.00 77 1016.1
20260905115829 24 102 8.0 20.9 0.00 0.00 0.00 76 1015.9
20260905114804 24 126 8.0 22.5 0.00 0.00 0.00 76 1015.9
20260905113756 24 142 11.3 32.2 0.00 0.00 0.00 78 1015.8
20260905112734 24 89 12.9 32.2 0.00 0.00 0.00 81 1015.6
20260905110702 25 70 0.0 4.8 0.00 0.00 0.00 91 1014.3
20260905105719 25 345 0.0 0.0 0.00 0.00 0.00 91 1013.9
20260905103501 25 345 0.0 0.0 0.00 0.00 0.00 90 1013.6
20260905101400 25 345 0.0 0.0 0.00 0.00 0.00 90 1013.7
20260905100422 25 345 0.0 0.0 0.00 0.00 0.00 90 1013.8
20260905094325 25 75 0.0 0.0 0.00 0.00 0.00 90 1013.6
20260905093341 25 75 0.0 0.0 0.00 0.00 0.00 89 1013.6
20260905090118 25 75 0.0 0.0 0.00 0.00 0.00 89 1013.5
20260905085110 25 75 0.0 0.0 0.00 0.00 0.00 88 1013.4
20260905084131 26 75 1.6 4.8 0.00 0.00 0.00 88 1013.3
20260905083101 26 242 0.0 4.8 0.00 0.00 0.00 87 1013.3
20260905082033 26 146 0.0 1.6 0.00 0.00 0.00 88 1013.2
20260905081053 26 156 1.6 4.8 0.00 0.00 0.00 88 1013.2